FENGYUN 1C DEB

Satellite information

Favourite Embed

Satellite Type and Status

DEBRISIN ORBIT

Key statistics

Satellite FENGYUN 1C DEB at a glance.

Uptime

9715

Days in orbit

Revolutions

≈ 14.5

Per day

Orbit

SSO

Sun Synchronous Orbit

Inclination

99.0

Latest

Satellite identification and parameters

Extended collection of information and parameters for FENGYUN 1C DEB.

Object identification

Identified? True

Debris? True

Object name: FENGYUN 1C DEB

International designator: 1999-025DPL

Object number (NORAD): 35204

Object ID (CCSDS): 35204

Country: PEOPLES REPUBLIC OF CHINA (PRC)

Current information (Y/N): Y

RCS size: SMALL

Orbital parameters

Period: 99.392 minutes

Inclination: 99.008 deg

SMA: 7107.684 km

Apoapsis: 757.625 km

Periapsis: 701.473 km

RAAN: 176.0825 deg

Eccentricy: 0.00395006

Argument of periapsis: 321.5896 deg

Mean anomaly: 101.6083 deg

Mean motion: 14.48807207 rev/day

Mean motion (dot): 0.00014702 rev/day2

B* drag term: 0.0038598112 1/REarth

Two-line elements (TLE)

Creation date: Dec. 14, 2025, 3:07 a.m.

Reference frame: TEME

Reference center: EARTH

Epoch: Dec. 13, 2025, 11:50 a.m. UTC

TLE line 0: 0 FENGYUN 1C DEB

TLE line 1: 1 35204U 99025DPL 25347.49362233 .00014702 00000-0 38598-2 0 9991

TLE line 2: 2 35204 99.0080 176.0825 0039501 321.5896 101.6083 14.48807207909416

Live tracking on map

Real-time ground track for satellite FENGYUN 1C DEB.

In-orbit conjunctions

A list of the most updated potential collisions computed for object FENGYUN 1C DEB.

Target Orbit TCA Probability of collision Miss distance Type
CZ-6A DEB LEO 2025-01-07 08:41:18 0.000533958 183.0 (m) DEBRIS
NOAA 17 DEB SSO 2024-11-15 16:35:07 0.0001915338 448.0 (m) DEBRIS
CZ-6A DEB LEO 2024-09-19 03:26:25 0.0001198468 154.0 (m) DEBRIS
FENGYUN 1C DEB SSO 2024-06-22 18:26:18 0.00016475 68.0 (m) DEBRIS

Associated space launch

Chinese polar orbiting meteorological satellite

FENGYUN 1C DEB was lifted into orbit during the mission ‘Long March 4B | Feng Yun 1C’, on board a Long March 4B space rocket.

The launch took place on May 10, 1999, 1:33 a.m. from Launch Complex 7.

For more information about the launch, click the button.

Launch to space Long March 4B | Feng Yun 1C
Long March 4B | Feng Yun 1C

Agency: N/A

Status: Launch Successful

Launch date: May 10, 1999, 1:33 a.m. UTC

Rocket: Long March 4B

Launch pad: Launch Complex 7

Location: Taiyuan Satellite Launch Center, People's Republic of China

...

Latest news about this satellite

There are no fresh news available about this satellite. Check back as we update our databases every day.


Newsletter sign-up

Weekly statistics, charts and insights to help you stay on top of the space industry.